Total_Precipitation_Accumulation
0.26 0.40 0.90 1.06 1.16 1.19 1.18 1.12 1.01 0.94 0.95 1.08 1.15 1.11 1.00 0.94 0.95 0.94 0.91 0.91 1.01 1.24 1.39 1.44 1.37 1.31 1.19 1.06 0.92 0.71 0.63 0.53 0.49 0.46 0.46 0.54 0.63 0.65 0.53 0.50 0.55 0.52 0.69
0.25 0.35 0.80 1.10 1.23 1.24 1.25 1.17 1.00 0.89 0.92 1.01 1.15 1.20 1.17 1.06 0.99 1.01 1.00 0.99 1.17 1.33 1.40 1.43 1.29 1.18 1.05 0.88 0.70 0.52 0.46 0.35 0.28 0.23 0.20 0.29 0.45 0.58 0.51 0.49 0.53 0.63 0.69
0.30 0.41 0.73 1.13 1.33 1.35 1.33 1.23 1.06 0.92 0.94 0.95 1.11 1.23 1.28 1.23 1.18 1.15 1.14 1.16 1.27 1.30 1.29 1.26 1.21 1.10 0.88 0.70 0.56 0.43 0.36 0.27 0.21 0.16 0.18 0.29 0.41 0.61 0.62 0.55 0.58 0.72 0.70
0.36 0.49 0.76 1.17 1.40 1.44 1.33 1.23 1.12 1.00 0.93 0.93 1.01 1.15 1.26 1.31 1.33 1.29 1.27 1.30 1.27 1.21 1.18 1.12 0.97 0.89 0.77 0.60 0.49 0.44 0.33 0.26 0.21 0.17 0.26 0.34 0.40 0.77 0.89 0.77 0.73 0.75 0.69
0.44 0.60 0.94 1.35 1.51 1.52 1.42 1.34 1.24 1.09 0.96 0.98 1.03 1.04 1.13 1.24 1.35 1.49 1.49 1.41 1.31 1.13 1.06 1.02 0.87 0.80 0.75 0.68 0.56 0.46 0.37 0.25 0.17 0.20 0.31 0.39 0.54 1.03 1.02 0.90 0.83 0.80 0.72
0.62 0.84 1.11 1.43 1.56 1.54 1.50 1.45 1.40 1.22 1.10 1.17 1.18 1.12 1.10 1.16 1.28 1.47 1.53 1.40 1.28 1.14 1.09 0.98 0.89 0.81 0.75 0.68 0.63 0.53 0.41 0.25 0.18 0.23 0.32 0.40 0.57 1.02 0.98 0.85 0.83 0.82 0.79
0.85 1.04 1.26 1.49 1.62 1.60 1.58 1.56 1.53 1.47 1.42 1.39 1.34 1.22 1.17 1.16 1.20 1.28 1.29 1.20 1.19 1.15 1.10 1.05 0.96 0.89 0.82 0.71 0.66 0.55 0.43 0.23 0.18 0.26 0.32 0.40 0.64 1.00 0.99 0.88 0.89 0.89 0.87
1.12 1.29 1.43 1.65 1.76 1.70 1.63 1.58 1.59 1.68 1.66 1.59 1.51 1.40 1.27 1.26 1.23 1.16 1.11 1.04 1.09 1.13 1.12 1.06 0.96 0.88 0.83 0.74 0.68 0.60 0.43 0.21 0.18 0.21 0.26 0.40 0.66 0.95 0.97 0.87 0.88 0.91 0.92
1.51 1.65 1.81 1.84 1.78 1.81 1.77 1.70 1.64 1.68 1.72 1.72 1.61 1.53 1.38 1.31 1.25 1.13 1.03 1.03 1.05 1.06 1.05 1.01 0.97 0.86 0.79 0.71 0.61 0.53 0.37 0.22 0.19 0.21 0.25 0.37 0.66 1.03 1.04 0.91 0.84 0.85 0.88
2.01 2.09 2.20 2.21 2.06 1.95 1.84 1.80 1.74 1.67 1.76 1.81 1.69 1.44 1.24 1.21 1.22 1.12 0.93 1.00 1.08 1.03 0.99 0.93 0.93 0.90 0.75 0.64 0.56 0.48 0.35 0.25 0.22 0.23 0.28 0.38 0.65 1.00 1.06 0.93 0.91 0.89 0.89
2.48 2.46 2.43 2.48 2.42 2.29 2.14 1.91 1.89 1.83 1.84 1.77 1.64 1.45 1.32 1.28 1.18 1.06 0.82 0.79 0.95 0.98 0.94 0.89 0.86 0.85 0.72 0.59 0.53 0.43 0.34 0.27 0.27 0.30 0.31 0.46 0.74 0.92 1.02 0.97 0.93 0.93 0.95
2.62 2.68 2.64 2.63 2.63 2.55 2.38 2.25 2.12 1.95 1.91 1.79 1.55 1.43 1.42 1.34 1.24 1.05 0.91 0.81 0.88 0.91 0.96 0.93 0.85 0.80 0.71 0.58 0.57 0.50 0.39 0.33 0.33 0.32 0.36 0.52 0.77 0.90 0.96 0.96 0.97 0.95 0.94
2.86 3.01 3.00 2.93 2.99 3.02 2.79 2.53 2.41 2.17 1.97 1.95 1.71 1.56 1.48 1.52 1.50 1.39 1.17 1.03 1.01 0.92 0.92 0.93 0.85 0.68 0.60 0.54 0.52 0.46 0.43 0.40 0.36 0.35 0.42 0.49 0.71 0.90 0.93 0.97 0.99 1.01 1.07
3.04 3.23 3.47 3.40 3.33 3.34 3.13 2.82 2.58 2.38 2.13 2.01 1.95 1.79 1.66 1.60 1.52 1.45 1.25 1.07 1.01 0.90 0.86 0.94 0.87 0.69 0.62 0.54 0.53 0.52 0.50 0.45 0.40 0.40 0.44 0.47 0.58 0.84 1.00 1.12 1.10 1.04 1.16
2.90 3.22 3.60 3.58 3.46 3.37 3.20 2.93 2.63 2.51 2.32 2.16 2.20 2.13 1.90 1.73 1.64 1.57 1.48 1.28 1.15 1.01 0.88 0.88 0.96 0.86 0.79 0.73 0.63 0.56 0.54 0.51 0.46 0.43 0.42 0.45 0.50 0.73 0.95 1.09 1.14 1.20 1.26
2.91 3.09 3.45 3.58 3.45 3.40 3.23 2.96 2.64 2.43 2.33 2.29 2.14 2.06 2.06 1.89 1.78 1.75 1.63 1.44 1.29 1.15 0.99 0.89 0.93 0.96 0.92 0.87 0.80 0.71 0.67 0.61 0.53 0.49 0.44 0.46 0.50 0.59 0.80 0.95 1.07 1.24 1.46
2.94 3.16 3.29 3.52 3.61 3.42 3.34 3.06 2.73 2.60 2.40 2.27 2.17 2.02 2.02 1.99 1.91 1.90 1.78 1.56 1.43 1.39 1.26 1.15 1.13 1.11 1.02 0.90 0.81 0.79 0.77 0.69 0.61 0.58 0.53 0.50 0.49 0.53 0.68 0.87 0.98 1.17 1.40
2.98 3.22 3.29 3.36 3.50 3.48 3.42 3.30 2.87 2.62 2.56 2.38 2.28 2.15 2.03 2.03 2.05 2.09 1.97 1.74 1.72 1.79 1.65 1.46 1.36 1.25 1.10 1.00 0.90 0.87 0.82 0.77 0.66 0.62 0.60 0.54 0.51 0.52 0.64 0.87 0.98 1.09 1.24
2.88 3.17 3.37 3.37 3.40 3.59 3.57 3.52 3.38 2.99 2.64 2.59 2.56 2.31 2.05 2.01 2.05 2.06 2.04 1.95 1.97 2.01 1.94 1.76 1.64 1.55 1.34 1.19 1.09 1.06 1.04 0.98 0.88 0.76 0.69 0.68 0.65 0.64 0.78 0.99 1.08 1.09 1.10
2.86 3.12 3.37 3.41 3.38 3.65 3.88 3.79 3.65 3.44 2.92 2.60 2.56 2.42 2.21 2.07 2.03 2.01 1.97 2.07 2.14 2.12 2.07 2.02 1.86 1.77 1.65 1.54 1.44 1.30 1.26 1.22 1.08 0.89 0.78 0.77 0.77 0.80 0.91 0.98 1.02 1.10 1.12
2.77 2.99 3.21 3.34 3.34 3.39 3.60 3.60 3.43 3.25 3.08 2.74 2.50 2.47 2.39 2.27 2.25 2.16 1.99 2.05 2.17 2.07 1.96 2.03 2.11 2.10 2.00 1.86 1.79 1.61 1.49 1.37 1.23 1.00 0.82 0.79 0.81 0.87 0.91 0.96 1.01 0.93 0.83
2.43 2.79 3.03 3.24 3.43 3.30 3.16 3.27 3.32 3.31 3.18 2.99 2.78 2.69 2.52 2.35 2.27 2.26 2.25 2.17 2.26 2.25 2.16 2.11 2.18 2.27 2.18 2.14 2.09 2.00 1.79 1.64 1.36 1.11 0.95 0.86 0.84 0.89 0.91 0.91 0.91 0.90 0.79
2.12 2.45 2.74 2.97 3.25 3.40 3.32 3.41 3.44 3.41 3.27 3.03 2.78 2.66 2.56 2.47 2.37 2.27 2.29 2.32 2.31 2.34 2.27 2.20 2.19 2.25 2.28 2.20 2.13 2.24 1.97 1.64 1.39 1.23 1.05 0.95 0.91 0.92 0.95 0.97 0.94 0.91 0.85
1.90 2.15 2.38 2.72 3.00 3.27 3.41 3.33 3.22 3.17 2.96 2.76 2.72 2.82 2.75 2.55 2.41 2.35 2.29 2.27 2.32 2.31 2.26 2.31 2.35 2.25 2.27 2.29 2.23 2.06 1.86 1.60 1.51 1.39 1.23 1.13 1.03 0.98 0.99 1.01 0.97 0.91 0.90
1.69 1.95 2.12 2.37 2.67 2.88 2.94 2.97 3.01 2.98 2.90 2.82 2.85 2.84 2.82 2.60 2.38 2.30 2.29 2.25 2.22 2.25 2.26 2.31 2.36 2.40 2.32 2.25 2.20 2.13 2.04 1.80 1.61 1.57 1.43 1.33 1.30 1.17 1.07 1.03 1.03 1.01 0.96
1.40 1.68 1.93 2.02 2.24 2.46 2.55 2.63 2.73 2.66 2.67 2.68 2.69 2.76 2.81 2.66 2.40 2.26 2.23 2.19 2.16 2.16 2.16 2.25 2.33 2.41 2.39 2.27 2.16 2.02 1.98 1.89 1.73 1.70 1.55 1.37 1.39 1.29 1.20 1.13 1.09 1.08 1.09